DELTA 1 DEB, 2224

Orbit data source: Space-Track

DELTA 1 DEB, 2224 is space debris in SSO originally from a launch on Mon, 28 Feb 1966 UTC launched from the Air Force Eastern Test Range (AFETR). Debris objects in space refer to the collection of defunct objects orbiting the Earth. Examples of debris include non-operational satellites, rocket bodies, and fragments generated from explosions, collisions, or faulty payload assembly.

Loading next visibility...
Identifier
2224, 1966-016D
Orbit
SSO
Country
Flag of USUS
Related business
Manufacturer
Unknown
Mission
Spacecraft
Bus & Motor
Unknown
Mass
1 kg wet, 1 kg dry
Launch date (UTC)
1966-02-28 (60 years ago)
Launch vehicle
Unknown
Launch site
Air Force Eastern Test Range (AFETR)
Object type
Payload
Rocket body
Debris
Shape & HBR
Unknown
Radar Cross Section
Small (<0.1 m²)

Expand to show TLE details & history
Last TLE update: 2 days ago

TLE from 2 days ago
0 DELTA 1 DEB
1  2224U 66016D   26037.27807223 -.00000011  00000-0  17998-3 0  9998
2  2224 101.1515 324.8653 0138062 122.6100  31.4776 12.52169960729512
Epoch: 2026-02-06T06:40Z
TLE epoch observation values (Epoch: 2026-02-06T06:40:25.440Z)
Latitude
24.59602°
Longitude
-86.50768°
Altitude
1,366.294 km
Speed
7.22 km/s
True Right ascension
10h 00m 03s
True Declination
24° 28' 35"
Sunlit
Object was in full shadow at epoch
Visualization orbit readout
Latitude
Unknown
Longitude
Unknown
Altitude
Unknown
Speed
Unknown
Apparent Right ascension
Unknown
Apparent Declination
Unknown
Sunlit
N/A
Visualization observer readout
Local Sidereal Time
07:13:06
Azimuth
Unknown
Elevation
Unknown
Doppler factor
Unknown
Orbital elements
Apogee altitude
1,561.058 km
Perigee altitude
1,344.823 km
Semi-major axis
7,831.078 km
Eccentricity
0.01381
Inclination
101.1515°
RAAN
324.8653°
Arg. of periapsis
122.61°
True anomaly
32.31601°
Mean anomaly
31.4776°
Eccentric anomaly
31.89556°
Mean motion
3.13192 °/min
Orbital period
114.95 mins
BSTAR
0.00017998
Loading maneuver chart data...
Computing Atmospheric mass density...
Loading historical data...
Loading historical data...
Loading historical data...
Loading historical data...
Loading historical data...
Loading historical data...
Loading historical data...
Other satellites on launch #16 in the year 1966 (1966-02-28 UTC)

Documentation

Showing up to 5 results
|